Weather History for Hill City, KS

Change the Weather History Date:

Tuesday, February 19, 2013

  Actual Average Record
Temperature  
Mean Temperature 27 °F 34 °F  
Max Temperature 42 °F 47 °F 73 °F (1986)
Min Temperature 11 °F 21 °F 3 °F (2006)
Degree Days  
Heating Degree Days 38    
Moisture  
Dew Point 13 °F    
Average Humidity 60    
Maximum Humidity 92    
Minimum Humidity 35    
Precipitation  
Precipitation 0.00 in 0.02 in 0.00 in (2014)
Month to date precipitation 0.05 0.34  
Year to date precipitation 0.14 0.79  
Sea Level Pressure  
Sea Level Pressure 30.27 in    
Wind  
Wind Speed 8 mph (ENE)    
Max Wind Speed 15 mph    
Max Gust Speed -    
Visibility 10 miles    
Events      
T = Trace of Precipitation, MM = Missing Value Source: NWS Daily Summary

Daily Weather History Graph

Daily Weather History Graph

Search for Another Location

Airport:

Trip Planner

Search our weather history database for the weather conditions in past years. The results will help you decide how hot, cold, wet, or windy it might be!

Date:

Astronomy

Feb. 19, 2013 Rise Set
Actual Time 7:25 AM CST 6:21 PM CST
Civil Twilight 6:58 AM CST 6:48 PM CST
Nautical Twilight 6:27 AM CST 7:19 PM CST
Astronomical Twilight 5:56 AM CST 7:50 PM CST
Moon 12:54 PM CST (2/19) 2:58 AM CST (2/19)
Length of Visible Light 11h 49m
Length of Day
10h 55m
Waxing Gibbous, 67% of the Moon is Illuminated
Feb 19
Waxing Gibbous
Feb 25
Full
Mar 4
Last Quarter
Mar 11
New
Mar 19
First Quarter

Hourly Weather History & Observations

Time (CST) Temp. Windchill Dew Point Humidity Pressure Visibility Wind Dir Wind Speed Gust Speed Precip Events Conditions
12:53 AM 21.0 °F 12.4 °F 14.0 °F 74% 30.21 in 10.0 mi WNW 6.9 mph - N/A   Clear
1:53 AM 21.0 °F 12.4 °F 15.1 °F 78% 30.22 in 10.0 mi NNW 6.9 mph - N/A   Clear
2:53 AM 19.9 °F 11.1 °F 15.1 °F 81% 30.23 in 10.0 mi NNW 6.9 mph - N/A   Clear
3:53 AM 21.0 °F 13.4 °F 15.1 °F 78% 30.24 in 10.0 mi NW 5.8 mph - N/A   Clear
4:53 AM 17.1 °F 8.7 °F 12.9 °F 84% 30.27 in 10.0 mi WNW 5.8 mph - N/A   Clear
5:53 AM 16.0 °F 10.4 °F 12.9 °F 88% 30.30 in 10.0 mi WNW 3.5 mph - N/A   Clear
6:53 AM 12.0 °F 5.9 °F 10.0 °F 92% 30.32 in 10.0 mi SW 3.5 mph - N/A   Clear
7:53 AM 14.0 °F - 10.9 °F 88% 30.35 in 10.0 mi Calm Calm - N/A   Clear
8:53 AM 23.0 °F 18.4 °F 16.0 °F 74% 30.37 in 10.0 mi North 3.5 mph - N/A   Clear
9:53 AM 28.9 °F 21.1 °F 12.9 °F 51% 30.38 in 10.0 mi NNE 8.1 mph - N/A   Clear
10:53 AM 32.0 °F 24.2 °F 14.0 °F 48% 30.37 in 10.0 mi NE 9.2 mph - N/A   Clear
12:53 PM 37.0 °F 33.3 °F 15.1 °F 41% 30.32 in 10.0 mi NNE 4.6 mph - N/A   Clear
1:53 PM 39.0 °F 33.4 °F 15.1 °F 38% 30.28 in 10.0 mi ESE 8.1 mph - N/A   Clear
2:53 PM 41.0 °F 35.2 °F 15.1 °F 35% 30.25 in 10.0 mi ESE 9.2 mph - N/A   Clear
3:53 PM 42.1 °F 34.5 °F 16.0 °F 35% 30.21 in 10.0 mi East 15.0 mph - N/A   Clear
4:53 PM 39.0 °F 31.0 °F 15.1 °F 38% 30.22 in 10.0 mi ESE 13.8 mph - N/A   Clear
6:53 PM 33.1 °F 24.4 °F 15.1 °F 48% 30.24 in 10.0 mi East 11.5 mph - N/A   Clear
7:53 PM 30.0 °F 19.5 °F 12.9 °F 49% 30.25 in 10.0 mi East 13.8 mph - N/A   Clear
8:53 PM 28.0 °F 17.0 °F 12.0 °F 51% 30.25 in 10.0 mi ESE 13.8 mph - N/A   Clear
9:53 PM 26.1 °F 14.5 °F 10.0 °F 51% 30.25 in 10.0 mi East 13.8 mph - N/A   Clear
10:53 PM 24.1 °F 13.1 °F 8.1 °F 51% 30.25 in 10.0 mi East 11.5 mph - N/A   Clear
11:53 PM 24.1 °F 12.5 °F 6.1 °F 46% 30.23 in 10.0 mi East 12.7 mph - N/A   Clear